SCP
1 2 2 2 2 2 1 1 1 1 1 1 1 1 1 1 1 1 1 1 1 1 0 0 0 0 0 0 0 0 0 0 0 0 0 0 0 0 0 0 0 0 0
1 2 2 2 2 2 2 1 2 2 1 1 1 1 1 1 1 1 1 1 1 1 1 0 0 0 0 0 0 0 0 0 0 0 0 0 0 0 0 0 0 0 0
1 2 2 2 2 2 2 2 2 2 2 2 2 1 1 1 1 1 1 1 1 1 1 0 0 0 0 0 0 0 0 0 0 0 0 0 0 0 0 0 0 0 0
1 2 2 2 2 2 2 2 2 2 2 2 2 2 1 1 1 1 1 1 1 1 1 1 0 0 0 0 0 0 0 0 0 0 0 0 0 0 0 0 0 0 0
2 2 2 2 2 2 2 2 2 2 2 2 2 2 2 1 1 1 1 1 1 1 1 1 1 1 1 0 0 0 0 0 0 0 0 0 0 0 0 0 0 0 0
2 2 2 2 2 2 2 2 2 2 2 2 2 2 2 1 1 1 1 1 1 1 1 1 1 1 1 1 0 0 0 0 0 0 0 0 0 0 0 0 0 0 0
2 2 2 2 2 2 2 2 2 2 2 2 2 2 2 2 1 1 1 1 1 1 1 1 1 1 1 1 1 0 0 0 0 0 0 0 0 0 1 1 1 0 0
2 2 2 2 2 2 2 2 2 2 2 2 2 2 2 2 2 2 1 1 1 1 1 2 2 1 1 1 1 1 0 0 0 0 0 0 0 1 1 1 1 0 0
3 2 2 2 2 2 2 2 2 2 2 2 2 2 2 2 2 2 1 1 1 1 1 1 2 1 1 1 1 1 0 0 0 0 0 0 0 1 1 0 0 0 0
3 3 2 2 2 2 2 2 2 2 2 2 2 2 2 2 2 2 1 1 1 1 1 1 1 1 1 1 1 0 0 0 0 0 0 0 1 0 0 0 0 0 0
3 3 3 3 3 2 2 2 2 2 2 2 2 2 2 2 2 1 1 1 1 1 1 1 1 1 1 1 0 0 0 0 0 0 0 1 1 1 0 0 0 0 0
3 3 3 3 3 3 2 2 2 2 2 2 2 2 2 2 2 2 1 1 1 1 1 1 1 1 1 0 0 0 0 0 0 0 1 1 1 1 0 0 0 0 0
3 3 3 4 3 3 3 2 2 2 2 2 2 2 3 3 3 2 2 2 1 1 1 1 1 1 1 1 0 0 1 1 1 1 1 1 1 1 1 0 0 0 0
3 3 3 3 3 3 3 3 3 2 2 2 2 2 3 3 3 3 3 2 2 2 1 1 1 1 1 1 0 1 1 1 1 1 1 1 1 1 1 1 0 1 1
3 3 3 3 3 3 3 3 3 3 3 2 2 3 3 4 4 3 3 2 2 2 2 1 1 1 1 1 0 0 1 1 1 1 1 1 1 1 1 1 1 1 1
3 3 3 3 3 3 3 3 3 3 3 3 2 2 3 4 4 4 3 3 2 2 2 1 1 1 1 1 0 0 1 1 1 1 1 1 1 1 1 1 1 1 1
3 3 3 3 3 3 2 3 3 3 3 3 2 2 2 3 4 4 3 3 2 2 2 2 1 1 1 1 0 0 1 1 1 1 1 1 1 1 1 1 1 1 1
3 3 3 3 3 3 2 2 3 3 3 2 2 2 2 3 4 4 3 3 2 2 2 2 1 1 1 1 1 0 1 1 2 2 2 2 1 1 0 0 0 1 1
4 3 3 3 3 2 2 2 2 3 3 2 2 2 2 2 3 4 3 3 3 3 2 1 1 1 1 1 1 0 1 1 2 2 2 2 1 1 0 0 0 0 0
4 3 3 3 3 2 2 2 2 2 2 2 2 2 2 2 3 3 3 3 3 3 2 1 1 1 1 1 0 0 0 1 2 2 2 2 1 1 1 1 1 0 0
4 3 3 3 3 2 2 2 2 2 2 2 2 2 2 2 3 3 3 3 3 3 3 2 1 1 1 1 0 0 0 1 2 2 2 1 1 0 1 1 1 1 1
3 3 3 3 3 2 2 2 2 2 2 2 2 2 2 2 2 3 3 3 4 3 3 2 1 1 1 1 0 0 0 1 2 2 2 1 0 0 0 1 1 1 1
3 3 3 3 2 2 2 2 2 2 2 2 1 2 2 2 2 3 3 3 3 3 3 3 2 1 1 1 0 0 0 1 1 2 1 1 0 0 0 0 0 0 0
4 4 3 3 2 2 2 2 2 2 2 2 1 1 2 2 2 3 3 3 3 3 3 3 2 2 1 1 1 0 0 0 1 1 1 0 0 0 0 0 0 0 0
4 4 4 3 2 2 2 2 2 2 2 2 2 1 2 2 3 3 3 3 3 3 3 3 2 2 1 1 1 1 0 0 0 1 1 0 0 0 0 0 0 0 0
4 4 4 3 3 2 1 1 1 2 2 2 2 1 2 2 3 3 3 3 3 3 3 3 2 2 1 1 1 1 0 0 0 0 0 0 0 0 0 0 0 0 0
Wind_Speed
2 3 3 3 5 6 6 7 8 8 9 10 11 11 11 11 11 11 11 11 12 12 13 13 14 14 14 15 15 15 15 15 16 16 15 15 15 15 14 12 12 14 16
2 4 3 3 5 6 6 7 7 8 8 9 11 11 11 11 11 11 11 11 11 12 12 13 13 14 14 15 15 15 15 15 15 13 12 13 13 14 14 13 13 12 15
2 4 5 4 5 6 7 7 8 8 8 9 10 11 11 11 11 11 11 11 11 12 12 13 13 14 14 14 15 15 15 14 12 8 7 11 13 14 15 15 15 15 16
3 4 5 5 5 6 6 7 7 8 8 9 10 10 10 11 11 11 11 11 11 11 12 12 13 13 13 14 14 14 14 12 9 4 7 10 11 13 14 14 15 15 15
4 4 5 4 5 6 6 6 7 7 8 8 9 9 9 10 10 10 10 10 11 11 11 12 12 12 13 13 14 14 13 11 6 6 9 9 10 13 14 14 14 14 14
4 5 5 4 5 6 6 6 6 6 7 7 8 9 9 9 10 10 10 10 10 11 11 11 12 12 12 13 13 12 11 7 5 8 8 9 10 13 14 14 14 14 14
3 4 5 4 4 5 6 6 5 6 6 6 8 9 9 9 9 9 9 9 10 10 11 11 12 12 12 12 12 12 9 4 6 8 8 8 10 13 14 14 14 14 14
3 3 4 4 4 4 4 5 5 5 5 5 6 8 8 8 9 8 9 9 10 10 10 11 11 11 11 11 11 11 7 3 7 8 8 9 11 12 13 13 13 13 13
3 4 3 3 3 4 3 3 4 4 4 5 5 6 7 7 8 8 8 8 9 10 10 10 11 11 11 11 11 10 7 3 6 6 7 7 10 11 12 12 12 12 13
3 3 3 2 2 3 3 3 3 4 4 4 4 5 6 7 7 7 7 7 8 9 10 10 11 11 11 10 10 9 5 3 6 6 5 7 9 11 11 11 11 12 12
2 2 2 2 2 2 2 2 3 3 4 4 4 5 5 6 7 6 7 7 8 8 9 10 11 11 10 9 9 6 4 3 6 5 5 8 9 10 10 10 11 11 11
2 2 1 1 1 1 1 2 2 2 3 4 4 5 5 5 4 5 6 6 7 8 8 9 10 9 6 6 7 5 3 5 5 5 6 8 9 10 10 9 9 10 10
0 0 1 0 1 1 1 1 1 1 2 3 4 4 4 4 4 4 4 5 6 7 6 8 7 5 5 4 4 4 4 4 3 4 6 7 8 9 9 9 9 9 9
1 1 1 1 1 1 1 1 1 1 1 1 3 4 3 3 4 4 4 4 4 4 5 5 4 5 5 5 5 5 5 3 3 3 6 7 7 7 8 9 9 9 9
1 1 1 1 1 1 1 1 1 1 1 1 2 3 3 3 4 4 4 4 4 4 5 5 5 5 5 5 4 5 5 5 5 4 5 7 6 6 7 8 8 8 8
2 2 2 1 1 1 1 1 1 1 1 1 2 3 3 3 4 4 5 4 4 4 5 5 5 5 4 4 4 5 5 5 4 4 4 6 6 6 6 6 7 7 7
2 2 2 2 2 2 2 2 1 1 1 1 2 3 4 4 5 5 4 4 4 4 5 5 6 5 4 4 4 4 4 4 4 4 4 3 4 5 6 5 5 5 5
3 3 2 2 2 2 2 2 1 1 2 1 2 2 4 4 5 5 5 5 5 4 4 5 5 5 5 4 3 3 3 3 4 3 3 3 2 3 4 5 5 5 4
3 3 3 3 2 2 2 2 2 1 2 2 2 2 2 4 5 5 5 4 6 5 4 5 5 5 5 5 4 3 2 3 3 3 3 3 2 2 2 4 4 5 4
2 3 3 3 3 2 2 1 1 2 1 2 2 2 3 3 4 4 4 6 6 5 5 5 6 5 5 4 4 3 2 2 2 2 2 2 2 2 2 2 3 3 3
2 3 3 3 3 2 2 2 2 2 2 2 2 3 4 3 4 4 3 5 6 5 6 7 6 7 5 5 4 3 2 1 2 2 2 2 2 2 2 2 2 2 2
3 3 3 3 3 3 3 3 3 2 2 2 2 2 3 4 5 5 5 5 5 5 7 7 6 5 4 4 4 4 3 3 2 2 2 2 3 2 2 2 2 2 1
4 4 3 4 4 4 3 3 2 2 2 2 2 3 3 3 4 5 6 6 5 6 6 7 8 7 6 5 4 3 3 3 3 3 3 3 3 3 2 2 2 2 2
5 4 4 4 4 4 4 4 4 4 4 4 3 3 3 3 4 5 5 6 6 5 6 7 7 6 7 6 5 3 1 1 3 3 4 3 3 3 2 2 3 3 2
5 4 4 4 4 4 4 4 5 4 3 3 3 4 4 3 4 5 5 5 5 5 5 6 6 7 6 6 5 4 3 2 2 2 3 3 3 3 2 3 2 2 2
4 4 4 4 4 4 4 4 5 5 4 4 4 4 4 3 3 5 5 6 5 5 5 6 6 8 7 7 6 5 4 4 4 3 3 4 3 3 3 3 2 2 2
Wind_Direction
163 152 140 139 126 119 113 112 115 122 126 128 128 126 123 120 116 115 115 114 113 112 112 111 108 105 102 101 97 94 91 89 88 85 83 84 86 87 88 87 90 86 84
163 161 146 143 129 122 116 111 113 116 122 127 127 126 125 124 121 118 117 116 117 114 112 109 108 106 102 101 99 97 95 92 89 87 91 90 85 87 85 76 73 86 86
145 154 152 137 129 123 117 113 112 116 121 123 126 127 125 123 121 121 119 115 115 115 112 109 107 105 104 103 101 99 97 94 92 92 108 98 93 89 89 86 86 88 86
147 151 153 125 129 123 119 114 114 117 121 125 123 125 125 123 122 121 119 116 113 110 110 109 107 107 105 104 102 100 97 95 90 102 98 94 95 92 93 92 90 90 88
140 140 128 122 125 126 120 114 116 116 120 125 124 122 123 124 123 122 118 115 113 111 109 109 110 110 108 107 105 104 100 96 95 97 90 93 94 94 93 91 89 91 89
130 131 120 110 124 126 122 117 116 118 118 126 130 128 124 125 126 123 118 114 114 113 113 112 112 113 112 109 107 105 104 107 122 97 95 94 96 98 95 92 90 90 89
117 126 130 97 107 121 128 126 123 118 118 123 134 133 129 126 124 124 120 116 117 117 119 118 116 114 113 112 109 107 102 93 104 99 95 92 94 99 98 96 93 91 89
106 117 126 104 88 91 113 129 128 121 120 119 132 137 131 128 124 122 122 120 121 120 121 122 120 115 114 113 111 108 100 105 108 101 97 95 93 98 98 97 95 94 91
99 95 111 129 124 96 81 106 124 121 119 115 118 134 127 124 126 122 123 124 124 122 122 123 120 115 112 112 112 107 95 75 108 101 99 96 98 99 98 97 96 96 94
91 94 96 106 124 133 127 77 84 106 106 105 102 116 119 122 123 123 127 122 121 121 122 123 120 115 110 111 111 109 112 146 110 105 99 97 99 101 101 99 99 98 96
65 82 93 98 101 122 140 107 94 105 112 118 114 112 140 149 146 144 127 119 119 119 123 124 121 117 113 111 110 116 144 123 109 99 96 95 102 103 102 101 100 100 98
27 26 76 124 128 122 128 142 158 160 164 166 161 155 166 159 148 141 117 113 117 116 119 120 122 127 136 130 126 150 135 121 110 104 94 98 108 107 106 106 104 102 100
211 0 350 325 188 168 138 155 157 165 173 179 172 166 167 159 151 146 143 138 138 141 136 132 139 141 138 130 137 135 125 119 110 106 98 98 106 110 111 109 109 106 104
231 275 302 310 230 196 170 160 171 154 176 185 180 178 174 164 163 155 155 155 158 156 151 150 145 139 135 135 136 133 130 126 115 107 97 92 98 108 113 113 112 112 111
254 273 296 289 244 220 191 177 170 174 177 189 190 182 176 175 170 162 156 157 160 157 158 154 149 143 140 136 136 136 131 123 119 116 109 92 89 97 110 115 114 115 113
263 265 279 266 240 238 213 198 193 190 188 194 195 188 185 183 175 167 162 162 161 160 159 157 152 146 140 137 137 140 136 130 123 121 119 113 91 86 97 111 116 113 114
256 260 266 257 248 235 230 207 201 203 211 205 202 196 189 188 179 172 167 164 163 160 156 153 151 148 142 142 142 140 137 136 135 132 129 127 121 96 86 93 106 116 117
261 255 256 259 255 248 244 225 201 205 219 219 216 205 199 189 184 176 171 167 164 161 158 158 158 154 149 145 141 140 141 141 144 135 133 132 130 128 110 89 87 102 116
257 258 255 255 250 249 244 231 208 204 216 221 210 202 206 195 187 181 175 169 168 164 163 166 164 160 153 146 141 136 140 144 146 149 142 136 130 137 140 119 102 86 86
266 267 260 259 253 242 228 225 210 197 214 219 212 203 199 196 187 179 181 177 174 169 168 171 167 160 153 145 136 125 116 138 144 147 155 150 144 149 153 148 151 128 99
295 285 268 260 253 239 227 226 222 210 212 222 214 212 202 196 186 179 177 179 182 179 176 174 169 159 154 152 146 138 128 143 143 157 168 168 156 158 159 155 153 158 148
288 280 272 263 249 236 234 233 225 230 215 219 221 215 206 198 185 180 176 177 181 180 179 177 172 167 163 174 168 163 170 179 180 182 181 182 176 168 170 171 171 166 162
286 278 269 259 253 241 237 226 219 214 201 205 216 210 202 202 193 185 185 182 183 185 183 184 181 181 176 180 185 183 183 186 162 177 186 187 186 184 183 186 191 190 193
278 275 267 259 254 244 228 220 216 215 210 216 212 211 206 202 195 186 185 187 186 188 189 189 188 187 182 180 184 208 226 157 177 168 180 187 194 197 196 197 198 198 201
274 272 265 256 251 246 234 226 221 222 220 216 202 205 200 201 200 193 186 187 189 191 190 194 191 191 192 189 184 180 185 183 200 194 181 181 194 201 207 213 207 200 199
275 269 266 258 250 243 235 230 227 224 219 217 214 205 199 201 204 200 194 191 189 189 192 197 198 197 199 197 192 189 188 187 190 200 190 187 196 193 203 209 210 203 205